Date String (YYYY-MM-DD hh:mm:ss) UTC,Instrument flags,absolute air pressure of the measurement (hPa),sample flow rate (lpm),inlet stack bypass flow (lpm),air temperature of the measurement (°C),ambient temperature measured by the external sensor (°C),aerosol sample conditioner tube jacket temperature (°C),OPC LED temperature (°C),internal box temperature (°C),relative humidity of the measurement (%),span deviation,mass concentration of particles derived from Lorenz-Mie calculation of OPC scattering (μg/m³),mass concentration of particles derived from Lorenz-Mie calculation of OPC scattering (μg/m³),mass concentration of particles derived from Lorenz-Mie calculation of OPC scattering (μg/m³)
DateTimeUTC,F1_M11,P_M11,Q1_M11,Q2_M11,T1_M11,T2_M11,T3_M11,T4_M11,T5_M11,U1_M11,ZSPAN_M11,X2_M11,X0_M11,X1_M11
2023-11-21 10:00:00,SystemResetWarning,0841.7,4.99,000.00,020.2,019.3,000.0,028.7,021.5,17.1,0000.0,0002.37,0003.84,0002.13
2023-11-21 10:01:00,SystemResetWarning,0841.7,5.00,000.00,020.2,019.3,000.0,028.7,021.4,17.1,0000.0,0002.35,0003.84,0002.10
2023-11-21 10:02:00,SystemResetWarning,0841.7,5.00,000.00,020.2,019.3,000.0,028.7,021.4,17.1,0000.0,0002.34,0003.78,0002.07
2023-11-21 10:03:00,SystemResetWarning,0841.7,5.01,000.00,020.2,019.3,000.0,028.6,021.4,17.2,0000.0,0002.32,0003.51,0002.06
2023-11-21 10:04:00,SystemResetWarning,0841.7,5.00,000.00,020.2,019.2,000.0,028.6,021.4,17.3,0000.0,0002.30,0003.17,0002.04
2023-11-21 10:05:00,SystemResetWarning,0841.7,5.01,000.00,020.2,019.2,000.0,028.6,021.3,17.4,0000.0,0002.33,0003.22,0002.04
2023-11-21 10:06:00,SystemResetWarning,0841.7,5.00,000.00,020.1,019.2,000.0,028.6,021.3,17.4,0000.0,0002.33,0003.23,0002.03
2023-11-21 10:07:00,SystemResetWarning,0841.6,5.00,000.00,020.1,019.2,000.0,028.6,021.3,17.4,0000.0,0002.32,0003.22,0002.02
2023-11-21 10:08:00,SystemResetWarning,0841.6,5.00,000.00,020.1,019.1,000.0,028.5,021.3,17.4,0000.0,0002.29,0003.14,0002.02
2023-11-21 10:09:00,SystemResetWarning,0841.6,4.99,000.00,020.1,019.1,000.0,028.5,021.2,17.5,0000.0,0002.28,0003.47,0002.01
2023-11-21 10:10:00,SystemResetWarning,0841.6,4.99,000.00,020.1,019.1,000.0,028.5,021.2,17.5,0000.0,0002.26,0004.59,0001.98
2023-11-21 10:11:00,SystemResetWarning,0841.6,4.99,000.00,020.0,019.0,000.0,028.5,021.2,17.5,0000.0,0002.25,0004.63,0001.95
2023-11-21 10:12:00,SystemResetWarning,0841.6,5.00,000.00,020.0,019.0,000.0,028.5,021.2,17.5,0000.0,0002.21,0004.58,0001.94
2023-11-21 10:13:00,SystemResetWarning,0841.6,5.00,000.00,020.0,019.0,000.0,028.5,021.2,17.5,0000.0,0002.21,0004.59,0001.91
2023-11-21 10:14:00,SystemResetWarning,0841.6,5.00,000.00,020.0,019.0,000.0,028.4,021.1,17.5,0000.0,0002.18,0004.52,0001.89
2023-11-21 10:15:00,SystemResetWarning,0841.6,5.00,000.00,020.0,019.0,000.0,028.4,021.1,17.5,0000.0,0002.14,0004.33,0001.86
2023-11-21 10:16:00,SystemResetWarning,0841.6,5.00,000.00,019.9,018.9,000.0,028.4,021.1,17.5,0000.0,0002.11,0004.43,0001.83
2023-11-21 10:17:00,SystemResetWarning,0841.5,5.00,000.00,019.9,018.9,000.0,028.4,021.1,17.5,0000.0,0002.07,0004.41,0001.80
2023-11-21 10:18:00,SystemResetWarning,0841.5,5.00,000.00,019.9,018.9,000.0,028.4,021.0,17.5,0000.0,0002.03,0004.37,0001.76
2023-11-21 10:19:00,SystemResetWarning,0841.5,5.00,000.00,019.9,018.9,000.0,028.4,021.0,17.5,0000.0,0001.99,0004.32,0001.73
2023-11-21 10:20:00,SystemResetWarning,0841.4,5.00,000.00,019.9,018.9,000.0,028.3,021.0,17.5,0000.0,0001.98,0004.25,0001.70
2023-11-21 10:21:00,SystemResetWarning,0841.5,5.00,000.00,019.8,018.9,000.0,028.3,020.9,17.5,0000.0,0001.96,0002.83,0001.69
2023-11-21 10:22:00,SystemResetWarning,0841.5,5.01,000.00,019.8,018.8,000.0,028.3,020.9,17.5,0000.0,0001.95,0002.73,0001.69
2023-11-21 10:23:00,SystemResetWarning,0841.5,5.00,000.00,019.8,018.8,000.0,028.3,020.9,17.5,0000.0,0001.93,0002.67,0001.69
2023-11-21 10:24:00,SystemResetWarning,0841.4,5.00,000.00,019.8,018.8,000.0,028.3,020.9,17.5,0000.0,0001.94,0002.66,0001.70
2023-11-21 10:25:00,SystemResetWarning,0841.4,5.00,000.00,019.7,018.8,000.0,028.2,020.8,17.6,0000.0,0001.95,0002.66,0001.71
2023-11-21 10:26:00,SystemResetWarning,0841.4,5.00,000.00,019.7,018.8,000.0,028.2,020.8,17.6,0000.0,0001.97,0002.73,0001.71
2023-11-21 10:27:00,SystemResetWarning,0841.5,5.00,000.00,019.7,018.7,000.0,028.2,020.7,17.6,0000.0,0001.97,0002.66,0001.70
2023-11-21 10:28:00,SystemResetWarning,0841.5,5.00,000.00,019.7,018.7,000.0,028.2,020.7,17.7,0000.0,0001.98,0003.44,0001.72
2023-11-21 10:29:00,SystemResetWarning,0841.5,5.00,000.00,019.6,018.7,000.0,028.2,020.7,17.7,0000.0,0002.00,0003.62,0001.74
2023-11-21 10:30:00,SystemResetWarning,0841.6,5.00,000.00,019.6,018.6,000.0,028.1,020.7,17.8,0000.0,0002.06,0003.70,0001.77
2023-11-21 10:31:00,SystemResetWarning,0841.5,5.00,000.00,019.6,018.6,000.0,028.1,020.7,17.8,0000.0,0002.10,0003.74,0001.81
2023-11-21 10:32:00,SystemResetWarning,0841.6,5.01,000.00,019.6,018.6,000.0,028.1,020.6,17.9,0000.0,0002.13,0003.81,0001.83
2023-11-21 10:33:00,SystemResetWarning,0841.5,5.01,000.00,019.6,018.6,000.0,028.1,020.7,17.9,0000.0,0002.15,0003.86,0001.85
2023-11-21 10:34:00,SystemResetWarning,0841.5,5.00,000.00,019.5,018.6,000.0,028.0,020.6,17.9,0000.0,0002.18,0003.93,0001.86
2023-11-21 10:35:00,SystemResetWarning,0841.4,5.00,000.00,019.5,018.5,000.0,028.0,020.6,17.9,0000.0,0002.21,0004.09,0001.88
2023-11-21 10:36:00,SystemResetWarning,0841.5,5.00,000.00,019.5,018.5,000.0,028.0,020.6,17.9,0000.0,0002.19,0004.07,0001.88
2023-11-21 10:37:00,SystemResetWarning,0841.5,5.00,000.00,019.5,018.5,000.0,028.0,020.6,17.9,0000.0,0002.19,0004.08,0001.88
2023-11-21 10:38:00,SystemResetWarning,0841.5,4.99,000.00,019.5,018.5,000.0,028.0,020.6,17.9,0000.0,0002.20,0004.09,0001.89
2023-11-21 10:39:00,SystemResetWarning,0841.5,5.01,000.00,019.5,018.5,000.0,027.9,020.5,17.9,0000.0,0002.21,0003.28,0001.87
2023-11-21 10:40:00,SystemResetWarning,0841.5,5.01,000.00,019.5,018.5,000.0,027.9,020.5,17.9,0000.0,0002.19,0003.52,0001.85
2023-11-21 10:41:00,SystemResetWarning,0841.5,5.01,000.00,019.4,018.4,000.0,027.9,020.5,17.9,0000.0,0002.16,0003.57,0001.83
2023-11-21 10:42:00,SystemResetWarning,0841.5,5.00,000.00,019.4,018.4,000.0,027.9,020.5,17.9,0000.0,0002.12,0004.01,0001.80
2023-11-21 10:43:00,SystemResetWarning,0841.5,5.00,000.00,019.4,018.4,000.0,027.9,020.5,17.9,0000.0,0002.11,0003.98,0001.79
2023-11-21 10:44:00,SystemResetWarning,0841.5,5.00,000.00,019.4,018.4,000.0,027.9,020.4,17.9,0000.0,0002.12,0006.81,0001.78
2023-11-21 10:45:00,SystemResetWarning,0841.5,4.99,000.00,019.4,018.4,000.0,027.8,020.4,18.0,0000.0,0002.11,0007.41,0001.77
2023-11-21 10:46:00,SystemResetWarning,0841.5,5.00,000.00,019.3,018.4,000.0,027.8,020.4,18.0,0000.0,0002.07,0007.32,0001.75
2023-11-21 10:47:00,SystemResetWarning,0841.5,5.00,000.00,019.3,018.4,000.0,027.8,020.4,18.0,0000.0,0002.07,0007.33,0001.74
2023-11-21 10:48:00,SystemResetWarning,0841.5,5.01,000.00,019.3,018.4,000.0,027.8,020.4,18.0,0000.0,0002.03,0007.29,0001.73
2023-11-21 10:49:00,SystemResetWarning,0841.5,5.01,000.00,019.3,018.4,000.0,027.8,020.4,18.0,0000.0,0002.00,0007.23,0001.72
2023-11-21 10:50:00,SystemResetWarning,0841.5,5.01,000.00,019.3,018.4,000.0,027.8,020.4,18.0,0000.0,0001.98,0007.51,0001.72
2023-11-21 10:51:00,SystemResetWarning,0841.5,5.01,000.00,019.3,018.4,000.0,027.8,020.4,18.0,0000.0,0001.97,0007.99,0001.72
2023-11-21 10:52:00,SystemResetWarning,0841.5,4.99,000.00,019.3,018.4,000.0,027.7,020.4,18.0,0000.0,0001.95,0007.92,0001.71
2023-11-21 10:53:00,SystemResetWarning,0841.5,4.99,000.00,019.3,018.4,000.0,027.7,020.4,18.0,0000.0,0001.98,0007.68,0001.71
2023-11-21 10:54:00,SystemResetWarning,0841.5,4.99,000.00,019.3,018.4,000.0,027.7,020.4,18.0,0000.0,0001.95,0007.64,0001.69
2023-11-21 10:55:00,SystemResetWarning,0841.5,5.00,000.00,019.3,018.4,000.0,027.7,020.4,18.0,0000.0,0001.89,0005.01,0001.68
2023-11-21 10:56:00,SystemResetWarning,0841.4,5.00,000.00,019.3,018.4,000.0,027.7,020.4,18.0,0000.0,0001.87,0004.34,0001.67
2023-11-21 10:57:00,SystemResetWarning,0841.4,5.00,000.00,019.3,018.4,000.0,027.7,020.4,18.0,0000.0,0001.85,0004.29,0001.66
2023-11-21 10:58:00,SystemResetWarning,0841.4,5.00,000.00,019.3,018.3,000.0,027.7,020.4,18.0,0000.0,0001.83,0004.89,0001.64
2023-11-21 10:59:00,SystemResetWarning,0841.3,5.00,000.00,019.3,018.3,000.0,027.7,020.4,18.0,0000.0,0001.86,0005.03,0001.64
